STARLINK-3792, 52339

Orbit data source: Space-Track

STARLINK-3792, 52339 is a payload satellite owned by SpaceX/Seattle (US) in LEO that was launched on Fri, 29 Apr 2022 UTC via an FALCON 9 launch vehicle from the Air Force Eastern Test Range (AFETR). Payload-class satellites include a variety of spacecraft equipped with specific instruments for various scientific and technological missions. These include communications satellites like Starlink; space stations such as the ISS; scientific satellites like the Hubble; Earth observation satellites from companies like Planet Labs, Umbra, and HawkEye 360; GPS; miniature CubeSats for education and research; and military/defense satellites.

Loading next visibility...
Identifier
52339, 2022-045J
Orbit
LEO
Country
Flag of USUS
Related business
Manufacturer
SpaceX/Seattle
Mission
Operational Commercial Communications
Bus & Motor
STARLINK, Unknown motor
Mass
297 kg wet, ~275 kg dry
Launch date (UTC)
2022-04-29 (4 years ago)
Launch vehicle
FALCON 9
Launch site
Air Force Eastern Test Range (AFETR)
Object type
Payload
Rocket body
Debris
Shape & HBR
Box + 1 Pan, 10.1 m
Radar Cross Section
11.087 m², Large (>1 m²)

Expand to show TLE details & history
Last TLE update: 1 day ago

TLE from 1 day ago
0 STARLINK-3792
1 52339U 22045J   25349.06996256  .00000061  00000-0  21897-4 0  9999
2 52339  53.2160 228.6374 0001306  93.9573 266.1568 15.08832700202876
Epoch: 2025-12-15T01:40Z
TLE epoch observation values (Epoch: 2025-12-15T01:40:44.765Z)
Latitude
-0.00004°
Longitude
119.47703°
Altitude
540.724 km
Speed
7.593 km/s
True Right ascension
15h 14m 32s
True Declination
0° 00' 00"
Sunlit
Object was in daylight at epoch
Visualization orbit readout
Latitude
Unknown
Longitude
Unknown
Altitude
Unknown
Speed
Unknown
Apparent Right ascension
Unknown
Apparent Declination
Unknown
Sunlit
N/A
Visualization observer readout
Local Sidereal Time
00:19:40
Azimuth
Unknown
Elevation
Unknown
Doppler factor
Unknown
Orbital elements
Apogee altitude
540.914 km
Perigee altitude
539.107 km
Semi-major axis
6,918.148 km
Eccentricity
0.00013
Inclination
53.216°
RAAN
228.6374°
Arg. of periapsis
93.9573°
True anomaly
266.14187°
Mean anomaly
266.1568°
Eccentric anomaly
266.14933°
Mean motion
3.77188 °/min
Orbital period
95.44 mins
BSTAR
0.000021897
Loading maneuver chart data...
Computing Atmospheric mass density...
Loading historical data...
Loading historical data...
Loading historical data...
Loading historical data...
Loading historical data...
Loading historical data...
Loading historical data...

Documentation

Showing up to 5 results
|